sat.trackr.live / text

‹ back to catalog

LEMUR-2-MARHISYAM

NORAD 60536 · 2024-149BW

PAYLOAD ACTIVE UNKNOWN

§ Identity

Operator
Country
US
Launch date
2024-08-16
Launch site
AFWTR
Launch vehicle
Mass (kg)
RCS (m²)

Purposes: earth_obs

External: N2YO · Heavens-Above · Gunter

§ Orbital elements

Epoch: 2026-05-25T05:09:45.631008Z

Period
95.32 min
Inclination
97.6878°
Eccentricity
0.0002606
Mean motion
15.10698331 rev/d
Perigee alt
532.3 km
Apogee alt
535.9 km
Semi-major
6,912.2 km
B*
6.3972e-4
RAAN
228.0053°
Arg perigee
158.2291°
Mean anomaly
201.9049°
Rev number
9,701

§ Raw data

LEMUR-2-MARHISYAM1 60536U 24149BW  26145.21511147  .00010538  00000+0  63972-3 0  99962 60536  97.6878 228.0053 0002606 158.2291 201.9049 15.10698331 97018

JSON: /api/v1/satellites/60536 · /tle

For live sub-satellite position, see the globe view (requires WebGL).

§ Visibility from observer

Set your observer location to see the next 7 days of passes ≥ 10°. The values pass through the URL so the page stays shareable.

No JS? Fill the form by hand. The geolocation button needs JavaScript.

§ Radio — SatNOGS DB

ModeDescriptionDownlinkUplink
FM Mode S - Transmitter 1 2.023 GHz
FM Mode S - Transmitter 2 (outside US) 2.201 GHz
FM Mode U - Transmitter 402.790 MHz

3 transmitters · refreshed weekly from db.satnogs.org